DMSP 5D-2 F13 DEB, 40448

Orbit data source: Space-Track

DMSP 5D-2 F13 DEB, 40448 is space debris in SSO originally from a launch on Fri, 24 Mar 1995 UTC launched from the Air Force Western Test Range (AFWTR). Debris objects in space refer to the collection of defunct objects orbiting the Earth. Examples of debris include non-operational satellites, rocket bodies, and fragments generated from explosions, collisions, or faulty payload assembly.

Loading next visibility...
Identifier
40448, 1995-015BA
Orbit
SSO
Country
Flag of USUS
Related business
Manufacturer
Unknown
Mission
Spacecraft
Bus & Motor
Unknown
Mass
Unknown
Launch date (UTC)
1995-03-24 (31 years ago)
Launch vehicle
Unknown
Launch site
Air Force Western Test Range (AFWTR)
Object type
Payload
Rocket body
Debris
Shape & HBR
Unknown shape, 0.1 m
Radar Cross Section
Small (<0.1 m²)

Expand to show TLE details & history
Last TLE update: 20 hours ago

TLE from 20 hours ago
0 DMSP 5D-2 F13 DEB
1 40448U 95015BA  25349.43147558  .00003299  00000-0  14232-2 0  9997
2 40448  98.9717 346.9081 0037276 216.9761 142.8848 14.24834991555343
Epoch: 2025-12-15T10:21Z
TLE epoch observation values (Epoch: 2025-12-15T10:21:19.490Z)
Latitude
0.00007°
Longitude
107.24674°
Altitude
833.364 km
Speed
7.425 km/s
True Right ascension
23h 07m 37s
True Declination
0° 00' 00"
Sunlit
Object was in daylight at epoch
Visualization orbit readout
Latitude
Unknown
Longitude
Unknown
Altitude
Unknown
Speed
Unknown
Apparent Right ascension
Unknown
Apparent Declination
Unknown
Sunlit
N/A
Visualization observer readout
Local Sidereal Time
05:02:10
Azimuth
Unknown
Elevation
Unknown
Doppler factor
Unknown
Orbital elements
Apogee altitude
832.993 km
Perigee altitude
779.432 km
Semi-major axis
7,184.349 km
Eccentricity
0.00373
Inclination
98.9717°
RAAN
346.9081°
Arg. of periapsis
216.9761°
True anomaly
143.1416°
Mean anomaly
142.8848°
Eccentric anomaly
143.01329°
Mean motion
3.5642 °/min
Orbital period
101 mins
BSTAR
0.0014232
Loading maneuver chart data...
Computing Atmospheric mass density...

Documentation

Showing up to 5 results
|